LU9DDB Weather Reports


Display with metric or nautical units.
time (UTC)temp
F
wind
direction
speed
MPH
gust
MPH
rain 1hr
in
rain 24hr
in
rain mn
in
humidity
%
barometer
mb
20260507200041 58 249 8.0 21.0 0.00 0.94 0.94 72 996.5
20260507194538 58 267 7.0 18.0 0.00 0.94 0.94 72 995.7
20260507193040 58 247 9.0 18.0 0.00 0.94 0.94 72 995.9
20260507191539 58 240 6.0 16.0 0.00 0.94 0.94 73 996.0
20260507190034 58 234 9.0 20.0 0.00 0.94 0.94 74 997.3
20260507184534 58 252 6.0 18.0 0.00 0.94 0.94 74 997.7
20260507183033 58 261 8.0 16.0 0.00 0.94 0.94 74 998.0
20260507181529 58 223 10.0 18.0 0.00 0.94 0.94 75 998.9
20260507180029 58 260 5.0 18.0 0.00 0.94 0.94 76 999.4
20260507174537 58 260 7.0 16.0 0.00 0.94 0.94 77 999.0
20260507173048 57 242 6.0 12.0 0.00 0.94 0.94 78 997.9
20260507171526 57 214 5.0 8.0 0.00 0.94 0.94 79 997.1
20260507170024 57 238 4.0 14.0 0.00 0.94 0.94 79 997.7
20260507164522 57 300 2.0 15.0 0.00 0.94 0.94 79 998.6
20260507163020 57 247 6.0 18.0 0.01 0.94 0.94 78 999.1
20260507161519 58 265 9.0 15.0 0.01 0.94 0.94 78 998.6
20260507160019 58 231 7.0 16.0 0.01 0.94 0.94 78 997.3
20260507154515 58 207 6.0 11.0 0.01 0.94 0.94 80 997.6
20260507153013 58 257 5.0 18.0 0.00 0.93 0.93 81 997.9
20260507151511 59 286 8.0 15.0 0.00 0.93 0.93 80 998.0
20260507150012 59 226 8.0 14.0 0.00 0.93 0.93 83 997.8
20260507144509 59 251 6.0 16.0 0.00 0.93 0.93 86 998.5
20260507143008 60 244 3.0 10.0 0.00 0.93 0.93 87 998.1
20260507141507 60 204 5.0 11.0 0.00 0.93 0.93 86 997.1
20260507140007 60 169 5.0 10.0 0.00 1.02 0.93 86 997.2
20260507134506 60 192 6.0 14.0 0.00 1.02 0.93 87 997.7
20260507133005 60 228 1.0 6.0 0.00 1.02 0.93 87 998.1
20260507131501 60 280 0.0 6.0 0.00 1.02 0.93 88 998.5
20260507130108 59 275 2.0 8.0 0.00 1.02 0.93 88 999.4
20260507124606 59 240 3.0 10.0 0.00 1.02 0.93 89 998.6
20260507123056 59 211 7.0 12.0 0.00 1.02 0.93 89 997.0
20260507121555 59 236 7.0 14.0 0.00 1.02 0.93 89 997.5
20260507120054 59 217 7.0 18.0 0.00 1.02 0.93 89 997.4
20260507114608 59 205 10.0 23.0 0.00 1.02 0.93 89 996.1
20260507113050 59 190 9.0 18.0 0.00 1.02 0.93 89 997.1
20260507111547 60 292 6.0 12.0 0.00 1.02 0.93 91 997.4
20260507110045 60 247 3.0 10.0 0.00 1.02 0.93 93 996.3
20260507104542 60 219 2.0 8.0 0.00 1.02 0.93 93 995.9
20260507103045 60 267 1.0 8.0 0.00 1.02 0.93 93 996.7
20260507101545 61 349 2.0 5.0 0.00 1.02 0.93 94 997.5
20260507100040 61 227 0.0 6.0 0.00 1.02 0.93 93 996.0
20260507094552 61 216 4.0 18.0 0.00 1.02 0.93 93 995.1
20260507093034 61 223 3.0 9.0 0.00 1.02 0.93 94 996.3
20260507091534 61 232 0.0 5.0 0.00 1.02 0.93 94 995.5
20260507090030 62 266 3.0 11.0 0.00 1.02 0.93 94 995.6
20260507084529 62 213 4.0 9.0 0.00 1.02 0.93 94 995.8
20260507083027 63 223 3.0 11.0 0.00 1.02 0.93 94 995.9
20260507081526 63 229 2.0 7.0 0.00 1.02 0.93 94 995.6
20260507080024 63 323 0.0 6.0 0.00 1.02 0.93 94 995.9
20260507074523 63 147 2.0 8.0 0.01 1.02 0.93 94 994.3
20260507073022 63 81 0.0 8.0 0.02 1.02 0.93 95 995.6
20260507071522 63 38 1.0 8.0 0.06 1.02 0.93 95 995.8
20260507070028 63 46 6.0 11.0 0.10 1.02 0.93 95 995.6
20260507064519 63 49 2.0 10.0 0.12 1.02 0.92 95 996.9
20260507063016 63 144 6.0 13.0 0.13 1.00 0.91 94 995.7
20260507061514 64 173 0.0 5.0 0.13 0.97 0.87 94 998.2
20260507060016 64 205 0.0 5.0 0.09 0.92 0.83 95 998.3
20260507054510 65 238 4.0 8.0 0.06 0.90 0.80 95 999.1
20260507053007 65 250 2.0 6.0 0.06 0.86 0.76 95 997.8
20260507051506 65 317 1.0 4.0 0.19 0.83 0.74 94 997.4
20260507050015 65 317 1.0 13.0 0.56 0.83 0.74 94 996.8
20260507044503 65 212 5.0 8.0 0.66 0.83 0.74 94 996.6
20260507043002 65 205 2.0 6.0 0.63 0.80 0.71 93 997.7
20260507041559 66 193 3.0 15.0 0.55 0.65 0.55 92 997.6
20260507040101 67 198 7.0 18.0 0.17 0.27 0.17 89 995.9
20260507034554 72 219 15.0 23.0 0.08 0.17 0.08 84 995.1
20260507033058 75 327 5.0 14.0 0.08 0.17 0.08 85 994.7
20260507031553 76 355 7.0 18.0 0.00 0.09 0.00 79 994.3
20260507030100 76 355 8.0 20.0 0.00 0.09 0.00 79 995.0
20260507024543 76 355 9.0 18.0 0.00 0.09 0.09 79 994.8
20260507023031 76 5 7.0 14.0 0.00 0.09 0.09 80 995.3
20260507021533 76 348 6.0 15.0 0.00 0.09 0.09 80 995.6
20260507020130 76 336 9.0 16.0 0.00 0.09 0.09 80 995.9
20260507014550 76 348 6.0 13.0 0.00 0.09 0.09 80 996.2
20260507013140 76 351 5.0 16.0 0.00 0.09 0.09 81 996.3
20260507011539 76 355 6.0 15.0 0.00 0.09 0.09 81 996.4
20260507010136 76 17 6.0 18.0 0.00 0.09 0.09 81 996.2
20260507004542 77 335 7.0 13.0 0.00 0.09 0.09 80 996.8
20260507003141 77 343 5.0 19.0 0.00 0.09 0.09 80 996.7
20260507001605 77 5 9.0 20.0 0.00 0.09 0.09 80 996.3
20260507000158 76 9 7.0 21.0 0.00 0.09 0.09 82 996.1
20260506230024 71 28 3.0 11.0 0.00 0.09 0.09 86 996.1
20260506224520 71 17 5.0 10.0 0.00 0.09 0.09 87 996.6
20260506223019 70 43 2.0 8.0 0.00 0.09 0.09 87 997.0
20260506221514 70 33 3.0 9.0 0.00 0.09 0.09 87 997.3
20260506220013 71 38 3.0 8.0 0.00 0.09 0.09 86 997.6
20260506214510 71 52 3.0 6.0 0.00 0.09 0.09 86 998.0
20260506213007 72 38 0.0 5.0 0.00 0.09 0.09 85 998.3
20260506211509 72 49 1.0 5.0 0.00 0.09 0.09 85 998.4
20260506210012 73 44 0.0 3.0 0.00 0.09 0.09 84 998.5
20260506204506 73 58 0.0 6.0 0.00 0.09 0.09 84 998.6
20260506203006 73 71 1.0 10.0 0.00 0.09 0.09 83 998.5
20260506201506 74 78 2.0 9.0 0.00 0.09 0.09 82 998.4